Imperial, NE

7:57 PM MDT on August 29, 2016 (GMT -0600)
Imperial Municipal

Weather History for KIML - October, 2015

Change the Weather History Date:

Saturday, October 24, 2015

  Actual Average Record
Temperature  
Mean Temperature 50 °F 47 °F  
Max Temperature 67 °F 61 °F 85 °F (1952)
Min Temperature 33 °F 33 °F 18 °F (1980)
Degree Days  
Heating Degree Days 15 18  
Month to date heating degree days 182 311  
Cooling Degree Days 0 0  
Month to date cooling degree days 13 3  
Year to date cooling degree days 1040 960  
Moisture  
Dew Point 34 °F    
Average Humidity 59    
Maximum Humidity 85    
Minimum Humidity 32    
Precipitation  
Precipitation 0.00 in 0.04 in 1.36 in (1916)
Sea Level Pressure  
Sea Level Pressure 30.22 in    
Wind  
Wind Speed 5 mph (SW)    
Max Wind Speed 13 mph    
Max Gust Speed 21 mph    
Visibility 10 miles    
Events Snow    
T = Trace of Precipitation, MM = Missing Value Source: NWS Daily Summary

Daily Weather History Graph

Daily Weather History Graph

Search for Another Location

Airport or City:

Trip Planner

Search our weather history database for the weather conditions in past years. The results will help you decide how hot, cold, wet, or windy it might be!

Date:

Astronomy

Oct. 24, 2015 Rise Set
Actual Time 7:07 AM MDT 5:53 PM MDT
Civil Twilight 6:39 AM MDT 6:21 PM MDT
Nautical Twilight 6:07 AM MDT 6:53 PM MDT
Astronomical Twilight 5:35 AM MDT 7:24 PM MDT
Moon 4:21 PM MDT (10/24) 3:32 AM MDT (10/24)
Length of Visible Light 11h 42m
Length of Day
10h 46m
Waxing Gibbous, 89% of the Moon is Illuminated
Oct 24
Waxing Gibbous
Oct 27
Full
Nov 3
Last Quarter
Nov 11
New
Nov 18
First Quarter

Hourly Weather History & Observations

Time (MDT) Temp. Windchill Dew Point Humidity Pressure Visibility Wind Dir Wind Speed Gust Speed Precip Events Conditions
12:53 AM 39.9 °F 33.4 °F 33.1 °F 77% 30.18 in 10.0 mi NW 10.4 mph - N/A   Clear
1:53 AM 39.0 °F 32.3 °F 30.9 °F 73% 30.19 in 9.0 mi WNW 10.4 mph - 0.00 in   Clear
2:53 AM 37.9 °F 30.9 °F 30.9 °F 76% 30.19 in 9.0 mi NW 10.4 mph - 0.00 in Snow Light Snow
3:53 AM 35.1 °F 28.6 °F 30.0 °F 82% 30.21 in 10.0 mi West 8.1 mph - 0.00 in   Clear
4:53 AM 35.1 °F 27.4 °F 30.0 °F 82% 30.22 in 10.0 mi West 10.4 mph - N/A   Clear
5:53 AM 36.0 °F 30.3 °F 30.0 °F 79% 30.24 in 10.0 mi WNW 6.9 mph - N/A   Clear
6:53 AM 34.0 °F 28.8 °F 28.9 °F 82% 30.26 in 10.0 mi WNW 5.8 mph - N/A   Clear
7:53 AM 35.1 °F 32.2 °F 30.0 °F 82% 30.27 in 10.0 mi WNW 3.5 mph - N/A   Clear
8:53 AM 39.9 °F - 33.1 °F 77% 30.28 in 10.0 mi Calm Calm - N/A   Clear
9:53 AM 48.0 °F - 37.0 °F 66% 30.27 in 10.0 mi SSE 4.6 mph - N/A   Clear
10:53 AM 53.1 °F - 34.0 °F 48% 30.25 in 10.0 mi South 5.8 mph - N/A   Clear
11:53 AM 57.0 °F - 33.1 °F 40% 30.23 in 10.0 mi SSW 8.1 mph - N/A   Clear
12:53 PM 60.1 °F - 34.0 °F 38% 30.21 in 10.0 mi South 8.1 mph - N/A   Clear
1:53 PM 63.0 °F - 36.0 °F 37% 30.17 in 10.0 mi SSW 6.9 mph - N/A   Clear
2:53 PM 64.9 °F - 35.1 °F 33% 30.15 in 10.0 mi South 6.9 mph - N/A   Clear
3:53 PM 66.0 °F - 36.0 °F 33% 30.15 in 10.0 mi South 6.9 mph - N/A   Clear
4:53 PM 64.9 °F - 37.0 °F 36% 30.16 in 10.0 mi South 6.9 mph - N/A   Clear
5:53 PM 60.1 °F - 37.9 °F 44% 30.18 in 10.0 mi SSW 3.5 mph - N/A   Clear
6:53 PM 55.0 °F - 37.9 °F 53% 30.20 in 10.0 mi Calm Calm - N/A   Clear
7:53 PM 48.9 °F - 37.0 °F 64% 30.23 in 10.0 mi Calm Calm - N/A   Clear
8:53 PM 46.0 °F - 37.0 °F 71% 30.24 in 10.0 mi Calm Calm - N/A   Clear
9:53 PM 45.0 °F 43.5 °F 37.9 °F 76% 30.24 in 10.0 mi South 3.5 mph - N/A   Clear
11:53 PM 39.9 °F 37.8 °F 35.1 °F 83% 30.24 in 10.0 mi WSW 3.5 mph - N/A   Clear